Weather History for KRPJ - March, 2013

Change the Weather History Date:

Tuesday, March 26, 2013

  Actual Average (KRFD) Record (KRFD)
Temperature  
Mean Temperature 34 °F 41 °F  
Max Temperature 39 °F 52 °F 81 °F (1907)
Min Temperature 31 °F 31 °F 5 °F (1960)
Degree Days  
Heating Degree Days 30 24  
Month to date heating degree days 751  
Since 1 July heating degree days 5753  
Cooling Degree Days 0 0  
Month to date cooling degree days 0  
Year to date cooling degree days 0  
Moisture  
Dew Point 27 °F    
Average Humidity 75    
Maximum Humidity 87    
Minimum Humidity 55    
Precipitation  
Precipitation 0.00 in 0.09 in 1.38 in (1916)
Month to date precipitation 1.86  
Year to date precipitation 4.64  
Snow  
Snow 0.00 in 0.10 in 2.20 in (1928)
Month to date snowfall 4.3  
Since 1 July snowfall 35.3  
Snow Depth -    
Sea Level Pressure  
Sea Level Pressure 30.19 in    
Wind  
Wind Speed 9 mph (WNW)    
Max Wind Speed 14 mph    
Max Gust Speed 16 mph    
Visibility 10 miles    
Events      
T = Trace of Precipitation, MM = Missing Value Source: NWS Daily Summary

Daily Weather History Graph

Daily Weather History Graph

Search for Another Location

Airport or City:

Trip Planner

Search our weather history database for the weather conditions in past years. The results will help you decide how hot, cold, wet, or windy it might be!

Date:

Astronomy

Mar. 26, 2013 Rise Set
Actual Time 6:48 AM CDT 7:15 PM CDT
Civil Twilight 6:20 AM CDT 7:43 PM CDT
Nautical Twilight 5:48 AM CDT 8:16 PM CDT
Astronomical Twilight 5:14 AM CDT 8:50 PM CDT
Moon 6:52 PM CDT (3/26) 6:05 AM CDT (3/26)
Length of Visible Light 13h 22m
Length of Day
12h 26m
Waxing Gibbous, 99% of the Moon is Illuminated
Mar 26
Waxing Gibbous
Mar 27
Full
Apr 2
Last Quarter
Apr 10
New
Apr 18
First Quarter

Hourly Weather History & Observations

Time (CDT) Temp. Windchill Dew Point Humidity Pressure Visibility Wind Dir Wind Speed Gust Speed Precip Events Conditions
12:15 AM 32.5 °F 24.8 °F 26.6 °F 79% 30.10 in 10.0 mi NW 9.2 mph - N/A   Overcast
12:35 AM 32.7 °F 26.4 °F 26.6 °F 78% 30.11 in 10.0 mi NW 6.9 mph - N/A   Overcast
12:55 AM 32.5 °F 24.8 °F 26.4 °F 78% 30.11 in 10.0 mi NW 9.2 mph - N/A   Overcast
1:15 AM 32.4 °F 24.6 °F 26.6 °F 79% 30.11 in 10.0 mi NW 9.2 mph - N/A   Overcast
1:35 AM 32.4 °F 25.3 °F 26.4 °F 79% 30.11 in 10.0 mi NW 8.1 mph - N/A   Overcast
1:55 AM 32.2 °F 25.0 °F 26.4 °F 79% 30.12 in 10.0 mi NW 8.1 mph - N/A   Overcast
2:15 AM 32.2 °F 25.0 °F 26.4 °F 79% 30.12 in 10.0 mi NW 8.1 mph - N/A   Overcast
2:35 AM 32.0 °F 24.8 °F 26.2 °F 79% 30.11 in 10.0 mi NW 8.1 mph - N/A   Overcast
2:55 AM 32.0 °F 24.8 °F 26.6 °F 80% 30.11 in 10.0 mi NW 8.1 mph - N/A   Overcast
3:15 AM 32.0 °F 24.8 °F 26.6 °F 80% 30.11 in 10.0 mi NW 8.1 mph - N/A   Overcast
3:35 AM 32.0 °F 24.8 °F 26.1 °F 79% 30.11 in 10.0 mi NW 8.1 mph - N/A   Overcast
3:55 AM 32.0 °F 24.8 °F 26.2 °F 79% 30.12 in 10.0 mi NW 8.1 mph - N/A   Overcast
4:15 AM 32.0 °F 24.2 °F 26.2 °F 79% 30.12 in 10.0 mi NW 9.2 mph - N/A   Overcast
4:35 AM 32.0 °F 24.8 °F 25.7 °F 78% 30.12 in 10.0 mi NW 8.1 mph - N/A   Overcast
4:55 AM 32.0 °F 24.2 °F 25.3 °F 76% 30.12 in 10.0 mi NW 9.2 mph - N/A   Overcast
5:15 AM 32.0 °F 23.6 °F 25.3 °F 76% 30.13 in 10.0 mi NW 10.4 mph - N/A   Overcast
5:35 AM 32.0 °F 23.6 °F 25.3 °F 76% 30.13 in 10.0 mi NNW 10.4 mph - N/A   Overcast
5:55 AM 31.8 °F 23.9 °F 25.5 °F 78% 30.14 in 10.0 mi NW 9.2 mph - N/A   Overcast
6:15 AM 31.8 °F 23.9 °F 25.7 °F 78% 30.14 in 10.0 mi NW 9.2 mph - N/A   Overcast
6:35 AM 31.5 °F 24.2 °F 25.7 °F 79% 30.15 in 10.0 mi NW 8.1 mph - N/A   Overcast
6:55 AM 31.1 °F 23.7 °F 25.7 °F 80% 30.16 in 10.0 mi NNW 8.1 mph - N/A   Overcast
7:15 AM 31.3 °F 23.9 °F 25.7 °F 80% 30.17 in 10.0 mi NW 8.1 mph - N/A   Overcast
7:35 AM 31.6 °F 24.4 °F 25.5 °F 78% 30.17 in 10.0 mi NW 8.1 mph - N/A   Overcast
7:55 AM 31.8 °F 24.6 °F 25.5 °F 78% 30.18 in 10.0 mi NW 8.1 mph - N/A   Overcast
8:15 AM 32.0 °F 24.8 °F 25.5 °F 77% 30.19 in 10.0 mi NW 8.1 mph - N/A   Overcast
8:35 AM 32.0 °F 24.2 °F 25.0 °F 75% 30.19 in 10.0 mi NW 9.2 mph - N/A   Overcast
8:55 AM 32.0 °F 23.6 °F 25.2 °F 76% 30.20 in 10.0 mi NNW 10.4 mph - N/A   Overcast
9:15 AM 32.4 °F 24.6 °F 25.7 °F 76% 30.20 in 10.0 mi NW 9.2 mph - N/A   Overcast
9:35 AM 32.4 °F 25.3 °F 25.7 °F 76% 30.21 in 10.0 mi NW 8.1 mph - N/A   Overcast
9:55 AM 32.9 °F 24.7 °F 25.5 °F 74% 30.21 in 10.0 mi NNW 10.4 mph - N/A   Overcast
10:15 AM 33.8 °F 26.4 °F 26.4 °F 74% 30.21 in 10.0 mi NNW 9.2 mph - N/A   Overcast
10:35 AM 34.2 °F 26.8 °F 26.1 °F 72% 30.21 in 10.0 mi NNW 9.2 mph - N/A   Overcast
10:55 AM 34.7 °F 27.5 °F 25.9 °F 70% 30.22 in 10.0 mi NW 9.2 mph - N/A   Overcast
11:15 AM 34.7 °F 27.5 °F 25.3 °F 69% 30.22 in 10.0 mi NNW 9.2 mph - N/A   Overcast
11:35 AM 35.8 °F 27.8 °F 26.4 °F 69% 30.22 in 10.0 mi NNW 11.5 mph - N/A   Overcast
11:55 AM 37.0 °F 29.8 °F 24.3 °F 60% 30.22 in 10.0 mi NW 10.4 mph - N/A   Mostly Cloudy
12:15 PM 36.5 °F 32.7 °F 21.6 °F 55% 30.21 in 10.0 mi West 4.6 mph - N/A   Scattered Clouds
12:35 PM 37.2 °F 32.6 °F 23.7 °F 58% 30.21 in 10.0 mi WNW 5.8 mph - N/A   Scattered Clouds
12:55 PM 37.9 °F 31.5 °F 25.5 °F 61% 30.21 in 10.0 mi NW 9.2 mph 16.1 mph N/A   Mostly Cloudy
1:15 PM 38.5 °F 31.6 °F 26.8 °F 63% 30.21 in 10.0 mi West 10.4 mph - N/A   Mostly Cloudy
1:55 PM 37.4 °F 32.1 °F 23.7 °F 58% 30.21 in 10.0 mi West 6.9 mph - N/A   Overcast
2:15 PM 37.4 °F 29.8 °F 25.3 °F 62% 30.21 in 10.0 mi WNW 11.5 mph - N/A   Overcast
2:35 PM 37.4 °F 30.3 °F 23.7 °F 58% 30.21 in 10.0 mi West 10.4 mph - N/A   Overcast
2:55 PM 37.4 °F 29.8 °F 25.9 °F 63% 30.21 in 10.0 mi West 11.5 mph - N/A   Overcast
3:15 PM 37.2 °F 29.6 °F 27.9 °F 69% 30.21 in 10.0 mi West 11.5 mph - N/A   Overcast
3:55 PM 38.7 °F 30.5 °F 27.1 °F 63% 30.21 in 10.0 mi West 13.8 mph - N/A   Mostly Cloudy
4:15 PM 37.6 °F 30.0 °F 26.8 °F 65% 30.21 in 10.0 mi West 11.5 mph - N/A   Overcast
4:35 PM 37.4 °F 29.8 °F 27.0 °F 66% 30.21 in 10.0 mi West 11.5 mph - N/A   Overcast
4:55 PM 37.2 °F 29.6 °F 27.5 °F 68% 30.21 in 10.0 mi West 11.5 mph - N/A   Overcast
5:15 PM 36.5 °F 29.2 °F 28.0 °F 71% 30.21 in 10.0 mi West 10.4 mph - N/A   Overcast
5:35 PM 37.0 °F 31.6 °F 25.9 °F 64% 30.22 in 10.0 mi WNW 6.9 mph - N/A   Overcast
5:55 PM 37.4 °F 30.3 °F 25.2 °F 61% 30.22 in 10.0 mi NW 10.4 mph - N/A   Overcast
6:15 PM 37.0 °F 31.6 °F 25.7 °F 64% 30.23 in 10.0 mi NW 6.9 mph - N/A   Overcast
6:35 PM 36.5 °F 29.7 °F 26.4 °F 67% 30.23 in 10.0 mi WNW 9.2 mph - N/A   Overcast
6:55 PM 35.6 °F 29.9 °F 28.8 °F 76% 30.24 in 10.0 mi WNW 6.9 mph - N/A   Overcast
7:15 PM 34.7 °F 29.6 °F 28.8 °F 79% 30.24 in 10.0 mi West 5.8 mph - N/A   Overcast
7:35 PM 33.8 °F 27.0 °F 28.8 °F 82% 30.24 in 10.0 mi West 8.1 mph - N/A   Overcast
7:55 PM 33.4 °F 28.1 °F 29.3 °F 85% 30.24 in 10.0 mi West 5.8 mph - N/A   Overcast
8:15 PM 33.3 °F 27.1 °F 28.9 °F 84% 30.25 in 10.0 mi West 6.9 mph - N/A   Overcast
8:35 PM 33.8 °F 28.6 °F 28.8 °F 82% 30.25 in 10.0 mi West 5.8 mph - N/A   Overcast
8:55 PM 33.3 °F 27.9 °F 28.9 °F 84% 30.25 in 10.0 mi West 5.8 mph - N/A   Overcast
9:15 PM 33.1 °F 27.7 °F 29.3 °F 86% 30.25 in 10.0 mi West 5.8 mph - N/A   Overcast
9:35 PM 33.1 °F 27.7 °F 29.3 °F 86% 30.26 in 10.0 mi West 5.8 mph - N/A   Overcast
9:55 PM 32.9 °F 27.5 °F 29.3 °F 87% 30.26 in 10.0 mi West 5.8 mph - N/A   Overcast
10:15 PM 33.1 °F 26.1 °F 28.6 °F 84% 30.26 in 10.0 mi West 8.1 mph - N/A   Overcast
10:35 PM 32.9 °F 27.5 °F 29.1 °F 86% 30.26 in 10.0 mi West 5.8 mph - N/A   Overcast
10:55 PM 32.9 °F 26.7 °F 28.9 °F 85% 30.26 in 10.0 mi West 6.9 mph - N/A   Overcast
11:15 PM 32.9 °F 27.5 °F 28.9 °F 85% - 10.0 mi West 5.8 mph - N/A   Overcast
11:35 PM 32.9 °F 26.7 °F 29.1 °F 86% 30.27 in 10.0 mi West 6.9 mph - N/A   Overcast
11:55 PM 32.9 °F 25.9 °F 28.9 °F 85% 30.27 in 10.0 mi West 8.1 mph - N/A   Overcast